TimeEDT,TemperatureF,Dew PointF,Humidity,Sea Level PressureIn,VisibilityMPH,Wind Direction,Wind SpeedMPH,Gust SpeedMPH,PrecipitationIn,Events,Conditions,WindDirDegrees,DateUTC
12:15 AM,50.0,50.0,100,30.16,8.0,Calm,Calm,-,N/A,,Clear,0,2013-04-24 04:15:00
12:35 AM,50.0,50.0,100,30.17,9.0,Calm,Calm,-,N/A,,Clear,0,2013-04-24 04:35:00
12:55 AM,50.0,50.0,100,30.17,4.0,Calm,Calm,-,N/A,,Clear,0,2013-04-24 04:55:00
1:15 AM,48.2,48.2,100,30.17,8.0,Calm,Calm,-,N/A,,Clear,0,2013-04-24 05:15:00
1:35 AM,48.2,48.2,100,30.16,7.0,Calm,Calm,-,N/A,,Clear,0,2013-04-24 05:35:00
1:55 AM,48.2,48.2,100,30.15,7.0,Calm,Calm,-,N/A,,Clear,0,2013-04-24 05:55:00
2:15 AM,48.2,48.2,100,30.14,8.0,Calm,Calm,-,N/A,,Clear,0,2013-04-24 06:15:00
2:35 AM,48.2,48.2,100,30.13,8.0,Calm,Calm,-,N/A,,Clear,0,2013-04-24 06:35:00
2:55 AM,48.2,48.2,100,30.13,8.0,Calm,Calm,-,N/A,,Clear,0,2013-04-24 06:55:00
3:15 AM,48.2,48.2,100,30.12,9.0,Calm,Calm,-,N/A,,Clear,0,2013-04-24 07:15:00
3:35 AM,48.2,48.2,100,30.12,9.0,Calm,Calm,-,N/A,,Clear,0,2013-04-24 07:35:00
3:55 AM,46.4,46.4,100,30.12,8.0,Calm,Calm,-,N/A,,Clear,0,2013-04-24 07:55:00
4:15 AM,46.4,46.4,100,30.12,7.0,Calm,Calm,-,N/A,,Clear,0,2013-04-24 08:15:00
4:35 AM,46.4,46.4,100,30.13,10.0,Calm,Calm,-,N/A,,Clear,0,2013-04-24 08:35:00
4:55 AM,46.4,46.4,100,30.13,8.0,Calm,Calm,-,N/A,,Clear,0,2013-04-24 08:55:00
5:15 AM,46.4,46.4,100,30.13,7.0,Calm,Calm,-,N/A,,Clear,0,2013-04-24 09:15:00
5:35 AM,46.4,46.4,100,30.13,7.0,Calm,Calm,-,N/A,,Clear,0,2013-04-24 09:35:00
5:55 AM,46.4,46.4,100,30.13,8.0,Calm,Calm,-,N/A,,Clear,0,2013-04-24 09:55:00
6:15 AM,46.4,46.4,100,30.13,9.0,Calm,Calm,-,N/A,,Scattered Clouds,0,2013-04-24 10:15:00
6:35 AM,46.4,46.4,100,30.14,7.0,Calm,Calm,-,N/A,,Mostly Cloudy,0,2013-04-24 10:35:00
6:50 AM,46.4,46.4,100,30.14,2.0,Calm,Calm,-,N/A,,Overcast,0,2013-04-24 10:50:00
7:50 AM,48.2,48.2,100,30.16,2.5,Calm,Calm,-,N/A,,Overcast,0,2013-04-24 11:50:00
8:30 AM,55.4,55.4,100,30.17,10.0,Calm,Calm,-,N/A,,Clear,0,2013-04-24 12:30:00
9:50 AM,68.0,62.6,83,30.17,10.0,SSE,9.2,-,N/A,,Clear,150,2013-04-24 13:50:00
10:50 AM,73.4,60.8,65,30.17,10.0,South,8.1,-,N/A,,Clear,180,2013-04-24 14:50:00
11:50 AM,75.2,57.2,53,30.17,10.0,ESE,6.9,-,N/A,,Clear,120,2013-04-24 15:50:00
12:50 PM,77.0,57.2,50,30.16,10.0,ESE,4.6,-,N/A,,Clear,120,2013-04-24 16:50:00
1:50 PM,80.6,57.2,45,30.15,10.0,Variable,6.9,-,N/A,,Partly Cloudy,0,2013-04-24 17:50:00
2:50 PM,82.4,57.2,42,30.13,10.0,Variable,6.9,-,N/A,,Partly Cloudy,0,2013-04-24 18:50:00
4:50 PM,84.2,57.2,40,30.10,10.0,Variable,4.6,-,N/A,,Scattered Clouds,0,2013-04-24 20:50:00
5:50 PM,82.4,55.4,39,30.10,10.0,North,5.8,-,N/A,,Partly Cloudy,360,2013-04-24 21:50:00
6:50 PM,77.0,62.6,61,30.10,10.0,SE,10.4,-,N/A,,Clear,140,2013-04-24 22:50:00
7:50 PM,73.4,60.8,65,30.11,10.0,SE,8.1,-,N/A,,Clear,130,2013-04-24 23:50:00
8:15 PM,73.4,59.0,61,30.12,10.0,SE,5.8,-,N/A,,Clear,130,2013-04-25 00:15:00
8:35 PM,71.6,60.8,69,30.13,10.0,Calm,Calm,-,N/A,,Clear,0,2013-04-25 00:35:00
8:55 PM,71.6,60.8,69,30.13,10.0,Calm,Calm,-,N/A,,Clear,0,2013-04-25 00:55:00
9:15 PM,69.8,60.8,73,30.13,10.0,Calm,Calm,-,N/A,,Clear,0,2013-04-25 01:15:00
9:35 PM,69.8,62.6,78,30.15,10.0,Calm,Calm,-,N/A,,Clear,0,2013-04-25 01:35:00
9:55 PM,68.0,62.6,83,30.16,10.0,Calm,Calm,-,N/A,,Clear,0,2013-04-25 01:55:00
11:15 PM,62.6,60.8,94,30.16,10.0,Calm,Calm,-,N/A,,Clear,0,2013-04-25 03:15:00
11:35 PM,62.6,60.8,94,30.15,10.0,Calm,Calm,-,N/A,,Clear,0,2013-04-25 03:35:00
11:55 PM,62.6,60.8,94,30.15,10.0,Calm,Calm,-,N/A,,Clear,0,2013-04-25 03:55:00